Location: Holcomb Observatory
(44.4922°N, 73.1654°W)
Time: 11:20:11
(UTC-04:00)

Cosmos 2360 Rocket - Visible Passes

Search period start: 29 March 2017 00:00
Search period end: 08 April 2017 00:00
Orbit: 833 x 846 km, 71.0° (Epoch: 27 March)

Date Brightness Start Highest point End Pass type
(mag) Time Alt. Az. Time Alt. Az. Time Alt. Az.
29 Mar 4.8 02:00:36 11° ENE 02:00:36 11° ENE 02:01:15 10° ENE visible
29 Mar 2.3 03:42:22 73° NNE 03:42:22 73° NNE 03:47:29 10° NNE visible
29 Mar 3.9 05:24:08 14° WNW 05:26:38 18° NW 05:30:22 10° N visible
30 Mar 2.5 03:27:07 62° NNE 03:27:07 62° NNE 03:31:49 10° NNE visible
30 Mar 3.8 05:08:53 16° WNW 05:10:54 18° NW 05:14:47 10° N visible
31 Mar 2.8 03:11:51 53° NE 03:11:51 53° NE 03:16:08 10° NNE visible
31 Mar 3.8 04:53:37 17° WNW 04:55:11 19° NW 04:59:11 10° N visible
01 Apr 3.1 02:56:32 46° NE 02:56:32 46° NE 03:00:27 10° NNE visible
01 Apr 3.7 04:38:18 19° WNW 04:39:26 20° NW 04:43:35 10° N visible
02 Apr 3.3 02:41:11 40° NE 02:41:11 40° NE 02:44:46 10° NNE visible
02 Apr 3.7 04:22:57 21° WNW 04:23:43 21° NW 04:27:59 10° N visible
03 Apr 3.5 02:25:49 35° NE 02:25:49 35° NE 02:29:05 10° NNE visible
03 Apr 3.7 04:07:34 22° NW 04:08:00 22° NW 04:12:23 10° N visible
04 Apr 3.7 02:10:25 32° NE 02:10:25 32° NE 02:13:24 10° NNE visible
04 Apr 3.7 03:52:10 23° NW 03:52:16 23° NW 03:56:46 10° N visible
05 Apr 3.9 01:54:59 29° NE 01:54:59 29° NE 01:57:42 10° NNE visible
05 Apr 3.6 03:36:44 25° NW 03:36:44 25° NW 03:41:09 10° N visible
06 Apr 4.0 01:39:32 26° NE 01:39:32 26° NE 01:42:01 10° NNE visible
06 Apr 3.7 03:21:16 26° NW 03:21:16 26° NW 03:25:32 10° N visible
07 Apr 4.1 01:24:03 24° NE 01:24:03 24° NE 01:26:19 10° NE visible
07 Apr 3.7 03:05:48 26° NW 03:05:48 26° NW 03:09:55 10° N visible
